Thomasville, PA

11:08 PM EDT on August 23, 2016 (GMT -0400)
York

Weather History for KTHV - November, 2012

Change the Weather History Date:

Monday, November 12, 2012

  Actual Average Record
Temperature  
Mean Temperature 54 °F -  
Max Temperature 66 °F 63 °F 66 °F (2012)
Min Temperature 43 °F 39 °F 17 °F (2001)
Degree Days  
Heating Degree Days 10    
Growing Degree Days 4 (Base 50)    
Moisture  
Dew Point 49 °F    
Average Humidity 75    
Maximum Humidity 94    
Minimum Humidity 59    
Precipitation  
Precipitation 0.05 in - - ()
Sea Level Pressure  
Sea Level Pressure 30.28 in    
Wind  
Wind Speed 6 mph (SSE)    
Max Wind Speed 18 mph    
Max Gust Speed 28 mph    
Visibility 9 miles    
Events Rain    
Averages and records for this station are not official NWS values.
T = Trace of Precipitation, MM = Missing Value Source: NWS Daily Summary

Daily Weather History Graph

Daily Weather History Graph

Search for Another Location

Airport or City:

Trip Planner

Search our weather history database for the weather conditions in past years. The results will help you decide how hot, cold, wet, or windy it might be!

Date:

Astronomy

Nov. 12, 2012 Rise Set
Actual Time 6:49 AM EST 4:53 PM EST
Civil Twilight 6:20 AM EST 5:22 PM EST
Nautical Twilight 5:48 AM EST 5:54 PM EST
Astronomical Twilight 5:16 AM EST 6:26 PM EST
Moon 5:12 AM EST (11/12) 3:56 PM EST (11/12)
Length of Visible Light 11h 01m
Length of Day
10h 03m
Waning Crescent, 2% of the Moon is Illuminated
Nov 12
Waning Crescent
Nov 13
New
Nov 20
First Quarter
Nov 28
Full
Dec 6
Last Quarter

Hourly Weather History & Observations

Time (EST) Temp. Windchill Dew Point Humidity Pressure Visibility Wind Dir Wind Speed Gust Speed Precip Events Conditions
12:53 AM 43.0 °F - 37.9 °F 82% 30.40 in 10.0 mi Calm Calm - N/A   Clear
1:53 AM 46.0 °F - 41.0 °F 83% 30.40 in 10.0 mi Calm Calm - N/A   Clear
2:53 AM 44.1 °F 40.1 °F 39.9 °F 85% 30.39 in 8.0 mi SE 6.9 mph - N/A   Clear
3:53 AM 51.1 °F - 42.1 °F 71% 30.39 in 10.0 mi SSE 5.8 mph - N/A   Clear
4:53 AM 50.0 °F - 42.1 °F 74% 30.39 in 10.0 mi SSE 6.9 mph - N/A   Clear
5:53 AM 46.9 °F - 42.1 °F 83% 30.39 in 9.0 mi SE 5.8 mph - N/A   Clear
6:53 AM 48.0 °F - 44.1 °F 86% 30.39 in 8.0 mi SE 5.8 mph - N/A   Clear
7:53 AM 52.0 °F - 46.0 °F 80% 30.39 in 7.0 mi SSE 5.8 mph - N/A   Clear
8:53 AM 55.0 °F - 48.9 °F 80% 30.38 in 6.0 mi SE 8.1 mph - N/A   Haze
9:53 AM 57.0 °F - 50.0 °F 77% 30.38 in 7.0 mi East 4.6 mph - N/A   Clear
10:53 AM 59.0 °F - 51.1 °F 75% 30.36 in 10.0 mi ESE 6.9 mph - N/A   Clear
11:53 AM 62.1 °F - 52.0 °F 70% 30.33 in 10.0 mi ESE 10.4 mph - N/A   Clear
12:53 PM 66.0 °F - 52.0 °F 60% 30.30 in 10.0 mi Variable 5.8 mph 17.3 mph N/A   Clear
1:53 PM 66.9 °F - 52.0 °F 59% 30.27 in 10.0 mi SSE 8.1 mph - N/A   Mostly Cloudy
2:53 PM 66.0 °F - 52.0 °F 60% 30.23 in 10.0 mi SSE 12.7 mph - N/A   Overcast
3:53 PM 64.9 °F - 53.1 °F 65% 30.20 in 10.0 mi SE 10.4 mph - N/A   Partly Cloudy
4:53 PM 64.0 °F - 53.1 °F 67% 30.20 in 10.0 mi South 4.6 mph - N/A   Clear
5:53 PM 63.0 °F - 53.1 °F 70% 30.19 in 10.0 mi SSE 6.9 mph - N/A   Mostly Cloudy
6:53 PM 62.1 °F - 53.1 °F 72% 30.17 in 10.0 mi SSE 9.2 mph 16.1 mph N/A   Scattered Clouds
7:53 PM 63.0 °F - 54.0 °F 72% 30.16 in 10.0 mi SSE 10.4 mph - N/A   Mostly Cloudy
8:53 PM 62.1 °F - 54.0 °F 75% 30.15 in 10.0 mi South 6.9 mph - N/A   Overcast
9:53 PM 62.1 °F - 55.0 °F 78% 30.14 in 10.0 mi South 5.8 mph - 0.00 in   Mostly Cloudy
10:53 PM 62.1 °F - 55.0 °F 78% 30.12 in 10.0 mi South 9.2 mph 17.3 mph 0.00 in   Overcast
11:46 PM 53.6 °F - 51.8 °F 94% 30.17 in 3.0 mi NW 18.4 mph 26.5 mph 0.04 in Rain Heavy Rain
11:53 PM 52.0 °F - 48.0 °F 86% 30.19 in 6.0 mi NW 17.3 mph 27.6 mph 0.05 in Rain Light Rain